Terug naar catalogus

STARLINK-31888

ActiefCommunicatieVLEO
NORAD 59788·PAYLOAD·🇺🇸 United States

Gelanceerd May 18, 2024 vanaf Cape Canaveral Space Force Station

Loading…

Volgende Passages (komende 24 uur)

TLE

VersSource: CelesTrak SupGP

Epoch: Sep 14, 2026, 21:14 UTC

1 59788C 24093G   26257.88520833  .00037349  00000+0  13528-2 0  2577
2 59788  43.0027 220.1743 0001639 265.0010  82.3717 15.27558164    10

Volg STARLINK-31888 in realtime met AllMySat

Download on the App Store